OE2SWM Weather Reports


time (UTC)temp
C
wind
direction
speed
KPH
gust
KPH
rain 1hr
cm
rain 24hr
cm
rain mn
cm
humidity
%
barometer
mb
20260502214000 5 0 0.0 0.0 0.00 0.00 0.00 75 973.0
20260502213000 5 0 0.0 0.0 0.00 0.00 0.00 75 973.0
20260502212000 5 0 0.0 0.0 0.00 0.00 0.00 75 973.0
20260502211000 6 0 0.0 0.0 0.00 0.00 0.00 71 973.0
20260502210000 6 0 0.0 0.0 0.00 0.00 0.00 70 973.0
20260502205000 6 0 0.0 0.0 0.00 0.00 0.00 70 973.0
20260502204000 6 0 0.0 0.0 0.00 0.00 0.00 70 973.0
20260502203000 7 0 0.0 0.0 0.00 0.00 0.00 68 973.0
20260502202000 7 0 0.0 0.0 0.00 0.00 0.00 69 973.0
20260502201000 7 0 0.0 0.0 0.00 0.00 0.00 66 973.0
20260502200000 8 0 0.0 0.0 0.00 0.00 0.00 66 973.0
20260502195000 8 0 0.0 0.0 0.00 0.00 0.00 66 973.0
20260502194000 8 0 0.0 0.0 0.00 0.00 0.00 62 973.0
20260502193000 10 0 0.0 0.0 0.00 0.00 0.00 64 973.0
20260502192000 10 0 0.0 0.0 0.00 0.00 0.00 62 973.0
20260502191000 10 0 0.0 0.0 0.00 0.00 0.00 61 973.0
20260502190000 10 0 0.0 0.0 0.00 0.00 0.00 61 973.0
20260502185000 11 0 0.0 0.0 0.00 0.00 0.00 59 973.0
20260502184000 11 0 0.0 0.0 0.00 0.00 0.00 58 973.0
20260502183000 12 0 0.0 0.0 0.00 0.00 0.00 55 973.0
20260502182000 12 0 0.0 0.0 0.00 0.00 0.00 56 973.0
20260502181000 13 0 0.0 0.0 0.00 0.00 0.00 51 972.0
20260502164000 21 0 0.0 0.0 0.00 0.00 0.00 23 972.0
20260502163000 21 0 0.0 0.0 0.00 0.00 0.00 25 972.0
20260502162000 21 0 0.0 0.0 0.00 0.00 0.00 24 972.0
20260502161000 22 0 0.0 0.0 0.00 0.00 0.00 23 973.0
20260502152000 22 0 0.0 0.0 0.00 0.00 0.00 24 973.0
20260502151000 22 0 0.0 0.0 0.00 0.00 0.00 24 973.0
20260502123000 20 0 0.0 0.0 0.00 0.00 0.00 27 974.0
20260502122000 20 0 0.0 0.0 0.00 0.00 0.00 28 974.0
20260502121000 20 0 0.0 0.0 0.00 0.00 0.00 30 974.0
20260502115000 20 0 0.0 0.0 0.00 0.00 0.00 30 974.0
20260502114000 20 0 0.0 0.0 0.00 0.00 0.00 30 974.0
20260502113000 20 0 0.0 0.0 0.00 0.00 0.00 30 975.0
20260502112000 20 0 0.0 0.0 0.00 0.00 0.00 31 975.0
20260502111000 20 0 0.0 0.0 0.00 0.00 0.00 30 975.0
20260502110000 18 0 0.0 0.0 0.00 0.00 0.00 34 975.0
20260502105000 18 0 0.0 0.0 0.00 0.00 0.00 35 975.0
20260502104000 18 0 0.0 0.0 0.00 0.00 0.00 33 975.0
20260502103000 17 0 0.0 0.0 0.00 0.00 0.00 39 975.0
20260502102000 17 0 0.0 0.0 0.00 0.00 0.00 38 975.0
20260502101000 17 0 0.0 0.0 0.00 0.00 0.00 43 975.0
20260502091000 15 0 0.0 0.0 0.00 0.00 0.00 48 976.0
20260502071000 10 0 0.0 0.0 0.00 0.00 0.00 65 977.0
20260502070000 10 0 0.0 0.0 0.00 0.00 0.00 64 977.0
20260502065000 10 0 0.0 0.0 0.00 0.00 0.00 64 977.0
20260502064000 10 0 0.0 0.0 0.00 0.00 0.00 63 977.0
20260502063000 10 0 0.0 0.0 0.00 0.00 0.00 65 977.0
20260502062000 10 0 0.0 0.0 0.00 0.00 0.00 66 978.0
20260502061000 10 0 0.0 0.0 0.00 0.00 0.00 63 978.0
20260502060000 10 0 0.0 0.0 0.00 0.00 0.00 64 978.0
20260502055000 8 0 0.0 0.0 0.00 0.00 0.00 64 978.0
20260502054000 10 0 0.0 0.0 0.00 0.00 0.00 60 978.0
20260502053000 13 0 0.0 0.0 0.00 0.00 0.00 51 978.0
20260502052000 17 0 0.0 0.0 0.00 0.00 0.00 43 978.0
20260502051000 20 0 0.0 0.0 0.00 0.00 0.00 42 978.0
20260502050000 20 0 0.0 0.0 0.00 0.00 0.00 42 978.0
20260502045000 16 0 0.0 0.0 0.00 0.00 0.00 48 978.0
20260502044000 13 0 0.0 0.0 0.00 0.00 0.00 53 978.0
20260502043000 10 0 0.0 0.0 0.00 0.00 0.00 63 978.0
20260502042000 3 0 0.0 0.0 0.00 0.00 0.00 83 978.0
20260502041000 -1 0 0.0 0.0 0.00 0.00 0.00 90 978.0
20260502040000 -1 0 0.0 0.0 0.00 0.00 0.00 92 978.0
20260502035000 -1 0 0.0 0.0 0.00 0.00 0.00 90 978.0
20260502034000 0 0 0.0 0.0 0.00 0.00 0.00 88 978.0
20260502033000 0 0 0.0 0.0 0.00 0.00 0.00 91 978.0
20260502032000 0 0 0.0 0.0 0.00 0.00 0.00 92 978.0
20260502031000 0 0 0.0 0.0 0.00 0.00 0.00 91 978.0
20260502030000 0 0 0.0 0.0 0.00 0.00 0.00 90 978.0
20260502025000 0 0 0.0 0.0 0.00 0.00 0.00 91 978.0
20260502024000 0 0 0.0 0.0 0.00 0.00 0.00 91 978.0
20260502023000 0 0 0.0 0.0 0.00 0.00 0.00 92 978.0
20260502022000 0 0 0.0 0.0 0.00 0.00 0.00 90 978.0
20260502021000 0 0 0.0 0.0 0.00 0.00 0.00 92 978.0
20260502020000 0 0 0.0 0.0 0.00 0.00 0.00 90 978.0
20260502015000 0 0 0.0 0.0 0.00 0.00 0.00 91 978.0
20260502014000 0 0 0.0 0.0 0.00 0.00 0.00 89 978.0
20260502013000 0 0 0.0 0.0 0.00 0.00 0.00 91 978.0
20260502012000 0 0 0.0 0.0 0.00 0.00 0.00 89 978.0
20260502011000 0 0 0.0 0.0 0.00 0.00 0.00 89 978.0
20260502010000 0 0 0.0 0.0 0.00 0.00 0.00 89 978.0
20260502005000 0 0 0.0 0.0 0.00 0.00 0.00 89 978.0
20260502004000 0 0 0.0 0.0 0.00 0.00 0.00 90 978.0
20260502003000 0 0 0.0 0.0 0.00 0.00 0.00 86 978.0
20260502002000 0 0 0.0 0.0 0.00 0.00 0.00 87 978.0
20260502001000 1 0 0.0 0.0 0.00 0.00 0.00 85 978.0
20260502000000 1 0 0.0 0.0 0.00 0.00 0.00 87 978.0
20260501235000 1 0 0.0 0.0 0.00 0.00 0.00 87 978.0
20260501234000 1 0 0.0 0.0 0.00 0.00 0.00 86 978.0
20260501233000 1 0 0.0 0.0 0.00 0.00 0.00 86 978.0
20260501232000 1 0 0.0 0.0 0.00 0.00 0.00 86 978.0
20260501231000 1 0 0.0 0.0 0.00 0.00 0.00 86 978.0
20260501230000 2 0 0.0 0.0 0.00 0.00 0.00 86 978.0
20260501225000 2 0 0.0 0.0 0.00 0.00 0.00 83 978.0
20260501224000 2 0 0.0 0.0 0.00 0.00 0.00 84 978.0
20260501223000 2 0 0.0 0.0 0.00 0.00 0.00 84 978.0
20260501222000 2 0 0.0 0.0 0.00 0.00 0.00 84 978.0
20260501221000 2 0 0.0 0.0 0.00 0.00 0.00 85 978.0
20260501220000 3 0 0.0 0.0 0.00 0.00 0.00 83 978.0
20260501215000 3 0 0.0 0.0 0.00 0.00 0.00 85 978.0